User: anonymous   Login
Location: Young's Pond
(41.2695°N, 72.7766°W)
Time: 21:33:48
(UTC-04:00)
Language:

Spot 4 - Orbit

View from above orbital plane
View from above orbital plane
View from above satellite
View from above satellite

Ground track
Ground track

The orbit data is extracted from the following two-line orbital elements,

1 25260U 98017A   16175.94606774 -.00000000 +00000-0 +11026-4 0  9998
2 25260 098.3798 252.9764 0011798 296.5327 063.4658 14.53413533949811
Epoch (UTC): 23 June 2016 22:42:20
Eccentricity: 0.0011798
inclination: 98.3798°
perigee height: 706 km
apogee height: 723 km
right ascension of ascending node: 252.9764°
argument of perigee: 296.5327°
revolutions per day: 14.53413533
mean anomaly at epoch: 63.4658°
orbit number at epoch: 94981

The dashed part of the orbit path shows where the satellite is in the earth's shadow,  

DLR